| time (UTC) | temp F | wind direction | speed knots | gust knots | rain 1hr in | rain 24hr in | rain mn in | humidity % | barometer mb |
| 20260505013603 | 56 | 226 | 3.5 | 9.6 | 0.00 | 0.00 | 0.00 | 62 | 1009.5 |
| 20260505012703 | 57 | 219 | 2.6 | 7.8 | 0.00 | 0.00 | 0.00 | 61 | 1009.5 |
| 20260505011824 | 57 | 212 | 2.6 | 10.4 | 0.00 | 0.00 | 0.00 | 60 | 1009.3 |
| 20260505010903 | 57 | 218 | 2.6 | 7.0 | 0.00 | 0.00 | 0.00 | 59 | 1009.2 |
| 20260505010024 | 58 | 204 | 1.7 | 6.1 | 0.00 | 0.00 | 0.00 | 58 | 1009.0 |
| 20260505005424 | 58 | 212 | 2.6 | 9.6 | 0.00 | 0.00 | 0.00 | 57 | 1008.8 |
| 20260505004503 | 59 | 213 | 2.6 | 8.7 | 0.00 | 0.00 | 0.00 | 56 | 1008.8 |
| 20260505003603 | 59 | 213 | 2.6 | 7.0 | 0.00 | 0.00 | 0.00 | 55 | 1008.6 |
| 20260505002704 | 59 | 216 | 1.7 | 10.4 | 0.00 | 0.00 | 0.00 | 53 | 1008.4 |
| 20260505001803 | 60 | 202 | 2.6 | 7.0 | 0.00 | 0.00 | 0.00 | 52 | 1008.2 |
| 20260505000903 | 60 | 226 | 3.5 | 9.6 | 0.00 | 0.00 | 0.00 | 51 | 1008.0 |
| 20260505000003 | 61 | 220 | 2.6 | 10.4 | 0.00 | 0.00 | 0.00 | 50 | 1007.9 |
| 20260504235403 | 61 | 222 | 1.7 | 10.4 | 0.00 | 0.00 | 0.00 | 50 | 1007.8 |
| 20260504234524 | 62 | 209 | 3.5 | 9.6 | 0.00 | 0.00 | 0.00 | 48 | 1007.7 |
| 20260504233603 | 62 | 203 | 3.5 | 14.8 | 0.00 | 0.00 | 0.00 | 48 | 1007.5 |
| 20260504232703 | 63 | 195 | 2.6 | 9.6 | 0.00 | 0.00 | 0.00 | 47 | 1007.5 |
| 20260504231803 | 63 | 198 | 4.3 | 15.6 | 0.00 | 0.00 | 0.00 | 47 | 1007.3 |
| 20260504230903 | 64 | 203 | 4.3 | 13.0 | 0.00 | 0.00 | 0.00 | 45 | 1007.2 |
| 20260504230003 | 64 | 209 | 4.3 | 14.8 | 0.00 | 0.00 | 0.00 | 44 | 1007.2 |
| 20260504225403 | 64 | 177 | 3.5 | 13.9 | 0.00 | 0.00 | 0.00 | 45 | 1007.1 |
| 20260504224503 | 65 | 198 | 5.2 | 17.4 | 0.00 | 0.00 | 0.00 | 43 | 1006.9 |
| 20260504223603 | 65 | 208 | 5.2 | 19.1 | 0.00 | 0.00 | 0.00 | 43 | 1006.8 |
| 20260504222724 | 66 | 205 | 5.2 | 13.0 | 0.00 | 0.00 | 0.00 | 41 | 1006.8 |
| 20260504221824 | 67 | 192 | 2.6 | 13.9 | 0.00 | 0.00 | 0.00 | 40 | 1006.7 |
| 20260504220924 | 68 | 171 | 5.2 | 13.0 | 0.00 | 0.00 | 0.00 | 39 | 1006.6 |
| 20260504220003 | 69 | 191 | 4.3 | 15.6 | 0.00 | 0.00 | 0.00 | 37 | 1006.5 |
| 20260504215403 | 69 | 190 | 4.3 | 11.3 | 0.00 | 0.00 | 0.00 | 37 | 1006.6 |
| 20260504214503 | 70 | 200 | 4.3 | 15.6 | 0.00 | 0.00 | 0.00 | 36 | 1006.5 |
| 20260504213603 | 72 | 166 | 5.2 | 13.0 | 0.00 | 0.00 | 0.00 | 33 | 1006.5 |
| 20260504212703 | 72 | 196 | 5.2 | 20.9 | 0.00 | 0.00 | 0.00 | 35 | 1006.5 |
| 20260504211803 | 72 | 234 | 3.5 | 20.9 | 0.00 | 0.00 | 0.00 | 31 | 1006.5 |
| 20260504210903 | 72 | 251 | 3.5 | 9.6 | 0.00 | 0.00 | 0.00 | 30 | 1006.3 |
| 20260504210003 | 74 | 248 | 2.6 | 8.7 | 0.00 | 0.00 | 0.00 | 29 | 1006.2 |
| 20260504205403 | 74 | 229 | 3.5 | 10.4 | 0.00 | 0.00 | 0.00 | 32 | 1006.3 |
| 20260504204503 | 74 | 219 | 5.2 | 14.8 | 0.00 | 0.00 | 0.00 | 30 | 1006.2 |
| 20260504203603 | 74 | 232 | 4.3 | 20.9 | 0.00 | 0.00 | 0.00 | 28 | 1006.3 |
| 20260504202724 | 73 | 181 | 5.2 | 18.2 | 0.00 | 0.00 | 0.00 | 29 | 1006.2 |
| 20260504201824 | 74 | 223 | 5.2 | 13.0 | 0.00 | 0.00 | 0.00 | 28 | 1006.5 |
| 20260504200903 | 73 | 236 | 3.5 | 12.2 | 0.00 | 0.00 | 0.00 | 27 | 1006.4 |
| 20260504200003 | 74 | 228 | 4.3 | 11.3 | 0.00 | 0.00 | 0.00 | 29 | 1006.4 |
| 20260504195424 | 73 | 235 | 4.3 | 15.6 | 0.00 | 0.00 | 0.00 | 30 | 1006.5 |
| 20260504194503 | 72 | 220 | 5.2 | 16.5 | 0.00 | 0.00 | 0.00 | 29 | 1006.5 |
| 20260504193603 | 72 | 247 | 6.1 | 16.5 | 0.00 | 0.00 | 0.00 | 30 | 1006.4 |
| 20260504192724 | 72 | 226 | 5.2 | 16.5 | 0.00 | 0.00 | 0.00 | 28 | 1006.5 |
| 20260504191803 | 72 | 229 | 6.1 | 17.4 | 0.00 | 0.00 | 0.00 | 29 | 1006.4 |
| 20260504190903 | 73 | 236 | 3.5 | 17.4 | 0.00 | 0.00 | 0.00 | 28 | 1006.5 |
| 20260504190003 | 72 | 235 | 5.2 | 14.8 | 0.00 | 0.00 | 0.00 | 28 | 1006.6 |
| 20260504185403 | 72 | 218 | 5.2 | 13.0 | 0.00 | 0.00 | 0.00 | 29 | 1006.7 |
| 20260504184503 | 71 | 221 | 6.1 | 16.5 | 0.00 | 0.00 | 0.00 | 27 | 1007.0 |
| 20260504183603 | 71 | 226 | 4.3 | 13.9 | 0.00 | 0.00 | 0.00 | 28 | 1006.9 |
| 20260504182703 | 70 | 223 | 7.0 | 21.7 | 0.00 | 0.00 | 0.00 | 30 | 1007.1 |
| 20260504181803 | 70 | 214 | 7.8 | 22.6 | 0.00 | 0.00 | 0.00 | 29 | 1007.0 |
| 20260504180924 | 70 | 231 | 5.2 | 14.8 | 0.00 | 0.00 | 0.00 | 29 | 1007.1 |
| 20260504180003 | 69 | 226 | 7.0 | 20.0 | 0.00 | 0.00 | 0.00 | 28 | 1007.3 |
| 20260504175424 | 70 | 219 | 6.1 | 22.6 | 0.00 | 0.00 | 0.00 | 28 | 1007.3 |
| 20260504174503 | 70 | 244 | 7.0 | 16.5 | 0.00 | 0.00 | 0.00 | 29 | 1007.4 |
| 20260504173603 | 69 | 209 | 5.2 | 13.9 | 0.00 | 0.00 | 0.00 | 29 | 1007.2 |
| 20260504172703 | 68 | 236 | 6.1 | 19.1 | 0.00 | 0.00 | 0.00 | 29 | 1007.4 |
| 20260504171803 | 68 | 243 | 7.0 | 23.5 | 0.00 | 0.00 | 0.00 | 29 | 1007.4 |
| 20260504170903 | 68 | 222 | 6.1 | 16.5 | 0.00 | 0.00 | 0.00 | 29 | 1007.5 |
| 20260504150903 | 64 | 241 | 6.1 | 13.0 | 0.00 | 0.00 | 0.00 | 35 | 1008.9 |
| 20260504140903 | 62 | 223 | 4.3 | 13.9 | 0.00 | 0.00 | 0.00 | 40 | 1009.1 |
| 20260504081824 | 39 | 210 | 0.0 | 0.9 | 0.00 | 0.00 | 0.00 | 78 | 1009.7 |
| 20260504080903 | 39 | 220 | 0.0 | 2.6 | 0.00 | 0.00 | 0.00 | 76 | 1009.6 |
| 20260504050024 | 37 | 0 | 0.0 | 0.0 | 0.00 | 0.00 | 0.00 | 79 | 1009.8 |
| 20260504045403 | 37 | 0 | 0.0 | 0.0 | 0.00 | 0.00 | 0.00 | 80 | 1009.8 |
| 20260504044504 | 36 | 0 | 0.0 | 0.0 | 0.00 | 0.00 | 0.00 | 79 | 1009.8 |
| 20260504043603 | 36 | 0 | 0.0 | 0.0 | 0.00 | 0.00 | 0.00 | 79 | 1009.7 |
| 20260504042703 | 36 | 0 | 0.0 | 0.0 | 0.00 | 0.00 | 0.00 | 80 | 1009.7 |
| 20260504041824 | 36 | 0 | 0.0 | 0.0 | 0.00 | 0.00 | 0.00 | 79 | 1009.7 |
| 20260504040903 | 35 | 0 | 0.0 | 0.0 | 0.00 | 0.00 | 0.00 | 80 | 1009.6 |
| 20260504040004 | 35 | 0 | 0.0 | 0.0 | 0.00 | 0.00 | 0.00 | 81 | 1009.6 |
| 20260504035403 | 35 | 0 | 0.0 | 0.0 | 0.00 | 0.00 | 0.00 | 81 | 1009.6 |
| 20260504034503 | 35 | 0 | 0.0 | 0.0 | 0.00 | 0.00 | 0.00 | 80 | 1009.5 |
| 20260504033603 | 35 | 0 | 0.0 | 0.0 | 0.00 | 0.00 | 0.00 | 79 | 1009.5 |
| 20260504032703 | 36 | 0 | 0.0 | 0.0 | 0.00 | 0.00 | 0.00 | 79 | 1009.4 |
| 20260504031803 | 36 | 0 | 0.0 | 0.0 | 0.00 | 0.00 | 0.00 | 79 | 1009.3 |
| 20260504030903 | 36 | 0 | 0.0 | 0.0 | 0.00 | 0.00 | 0.00 | 78 | 1009.3 |
| 20260504030003 | 36 | 0 | 0.0 | 0.0 | 0.00 | 0.00 | 0.00 | 78 | 1009.2 |
| 20260504025403 | 36 | 0 | 0.0 | 0.0 | 0.00 | 0.00 | 0.00 | 77 | 1009.2 |
| 20260504024503 | 36 | 0 | 0.0 | 0.0 | 0.00 | 0.00 | 0.00 | 76 | 1009.2 |
| 20260504023603 | 37 | 0 | 0.0 | 0.0 | 0.00 | 0.00 | 0.00 | 76 | 1009.1 |
| 20260504022724 | 37 | 0 | 0.0 | 0.0 | 0.00 | 0.00 | 0.00 | 75 | 1009.1 |
| 20260504021803 | 37 | 0 | 0.0 | 0.0 | 0.00 | 0.00 | 0.00 | 75 | 1009.0 |
| 20260504020903 | 37 | 0 | 0.0 | 0.0 | 0.00 | 0.00 | 0.00 | 73 | 1009.0 |
| 20260504020003 | 38 | 0 | 0.0 | 0.0 | 0.00 | 0.00 | 0.00 | 72 | 1009.0 |
| 20260504015403 | 38 | 0 | 0.0 | 0.0 | 0.00 | 0.00 | 0.00 | 72 | 1008.9 |
| 20260504014503 | 38 | 0 | 0.0 | 0.0 | 0.00 | 0.00 | 0.00 | 71 | 1008.9 |